1520143201.03,25094,6.94,71724.0,-10.57,-45.13,-45.53,0,*6D
1520143202.27,25095,6.94,71728.0,-10.57,-45.41,-45.81,0,*64
1520143203.52,25096,6.94,71728.5,-10.59,-44.99,-45.61,0,*63
1520143204.8,25097,6.94,71726.8,-10.59,-44.79,-45.27,0,*6E
1520143206.04,25098,6.94,71726.8,-10.57,-44.73,-45.41,0,*65
1520143207.29,25099,6.94,71728.0,-10.57,-45.21,-45.73,0,*63
1520143208.51,25100,6.94,71726.3,-10.57,-45.13,-45.53,0,*61
1520143209.78,25101,6.94,71730.5,-10.55,-45.07,-45.61,0,*66
1520143211.03,25102,6.94,71724.0,-10.55,-45.21,-45.61,0,*61
1520143212.3,25103,6.94,71728.0,-10.55,-44.93,-45.33,0,*6F
1520143213.53,25104,6.94,71728.0,-10.53,-44.79,-45.33,0,*6A
1520143214.8,25105,6.94,71730.5,-10.55,-45.07,-45.41,0,*60
1520143216.07,25106,6.94,71728.3,-10.55,-45.07,-45.53,0,*60
1520143217.34,25107,6.94,71728.0,-10.55,-44.93,-45.41,0,*6E
1520143218.58,25108,6.94,71726.0,-10.53,-44.67,-45.13,0,*6B
1520143219.83,25109,6.94,71728.5,-10.53,-44.73,-45.33,0,*6D
1520143221.1,25110,6.94,71730.0,-10.55,-45.07,-45.53,0,*67
1520143222.35,25111,6.94,71728.8,-10.53,-44.79,-45.47,0,*6D
1520143223.62,25112,6.94,71728.3,-10.53,-44.67,-45.27,0,*67
1520143224.84,25113,6.94,71726.0,-10.53,-44.87,-45.33,0,*6D
1520143226.06,25114,6.94,71726.5,-10.53,-45.13,-45.67,0,*67
1520143227.34,25115,6.94,71726.8,-10.53,-45.27,-45.73,0,*64
1520143228.57,25116,6.94,71730.5,-10.51,-45.13,-45.67,0,*67
1520143229.84,25117,6.94,71726.5,-10.51,-44.99,-45.47,0,*67
1520143231.11,25118,6.94,71724.5,-10.51,-45.13,-45.73,0,*6C
1520143232.35,25119,6.94,71726.5,-10.53,-45.13,-45.73,0,*6F
1520143233.62,25120,6.94,71724.5,-10.53,-45.07,-45.47,0,*67
1520143234.88,25121,6.94,71726.5,-10.51,-44.67,-45.13,0,*62
1520143236.14,25122,6.94,71726.3,-10.51,-44.67,-45.13,0,*61
1520143237.38,25123,6.94,71726.3,-10.51,-44.61,-44.87,0,*6A
1520143238.6,25124,6.94,71728.8,-10.49,-44.61,-44.87,0,*64
1520143239.87,25125,6.94,71728.3,-10.51,-44.99,-45.47,0,*66
1520143241.13,25126,6.94,71726.3,-10.51,-44.67,-45.13,0,*65
1520143242.38,25127,6.94,71726.3,-10.49,-44.73,-45.21,0,*69
1520143243.6,25128,6.94,71728.3,-10.49,-44.79,-45.41,0,*6A
1520143244.84,25129,6.94,71724.3,-10.49,-45.07,-45.67,0,*67
1520143246.09,25130,6.94,71728.3,-10.49,-44.93,-45.41,0,*67
1520143247.36,25131,6.94,71730.0,-10.49,-44.93,-45.27,0,*66
1520143248.62,25132,6.94,71726.5,-10.47,-45.27,-45.67,0,*61
1520143249.89,25133,7.0,71728.8,-10.49,-45.07,-45.47,0,*6E
1520143251.13,25134,6.94,71730.0,-10.49,-44.99,-45.47,0,*6F
1520143252.36,25135,6.94,71724.5,-10.49,-44.79,-45.21,0,*60
1520143253.6,25136,6.94,71724.5,-10.49,-44.93,-45.41,0,*61
1520143254.82,25137,6.94,71728.8,-10.49,-45.21,-45.67,0,*6C
1520143256.04,25138,6.94,71724.5,-10.49,-45.21,-45.61,0,*65
1520143257.3,25139,6.94,71728.5,-10.47,-45.07,-45.67,0,*68
1520143258.59,25140,6.94,71724.8,-10.47,-45.27,-45.47,0,*66
1520143259.84,25141,6.94,71728.0,-10.49,-44.61,-45.27,0,*6C
1520143261.1,25142,7.0,71728.3,-10.49,-44.73,-45.07,0,*6E
1520143262.35,25143,6.94,71728.0,-10.45,-44.73,-45.21,0,*67
1520143263.59,25144,6.94,71730.3,-10.47,-44.79,-45.41,0,*6E
1520143264.88,25145,6.94,71728.3,-10.47,-44.93,-45.27,0,*6B
1520143266.11,25146,6.94,71724.5,-10.45,-44.87,-45.33,0,*6A
1520143267.34,25147,6.94,71724.8,-10.45,-44.73,-45.13,0,*62
1520143268.59,25148,6.94,71730.0,-10.45,-44.67,-45.21,0,*69
1520143269.81,25149,6.94,71728.0,-10.45,-44.87,-45.21,0,*66
1520143271.04,25150,7.0,71732.0,-10.45,-44.87,-45.33,0,*6D
1520143272.27,25151,6.94,71728.5,-10.45,-44.67,-45.13,0,*60
1520143273.51,25152,7.0,71734.3,-10.45,-44.67,-45.13,0,*63
1520143274.75,25153,6.94,71730.8,-10.45,-44.93,-45.21,0,*68
1520143276.02,25154,6.94,71730.0,-10.47,-44.93,-45.41,0,*6B
1520143277.24,25155,6.94,71728.5,-10.45,-45.21,-45.61,0,*62
1520143278.46,25156,6.94,71726.3,-10.45,-45.21,-45.61,0,*61
1520143279.73,25157,6.94,71724.5,-10.47,-45.07,-45.61,0,*66
1520143280.94,25158,6.94,71730.5,-10.45,-44.99,-45.41,0,*6F
1520143282.17,25159,6.94,71732.5,-10.45,-45.21,-45.61,0,*6E
1520143283.4,25160,7.0,71732.0,-10.47,-45.41,-45.87,0,*68
1520143284.64,25161,6.94,71730.5,-10.45,-45.13,-45.73,0,*67
1520143285.88,25162,6.94,71730.8,-10.45,-44.93,-45.41,0,*6C
1520143287.12,25163,6.94,71730.8,-10.45,-45.13,-45.73,0,*65
1520143288.33,25164,6.94,71724.8,-10.45,-45.41,-45.95,0,*6D
1520143289.58,25165,6.94,71728.0,-10.45,-45.21,-45.81,0,*6F
1520143290.84,25166,6.94,71728.3,-10.47,-45.67,-46.07,0,*61
1520143292.05,25167,6.94,71726.3,-10.45,-45.41,-45.95,0,*6E
1520143293.29,25168,6.94,71728.5,-10.45,-45.41,-45.81,0,*64
1520143294.5,25169,6.94,71726.5,-10.45,-45.33,-45.95,0,*65
1520143295.73,25170,6.94,71728.5,-10.45,-45.13,-45.73,0,*67
1520143297.02,25171,6.94,71726.0,-10.47,-44.93,-45.47,0,*6A
1520143298.28,25172,6.94,71728.5,-10.47,-44.99,-45.47,0,*63
1520143299.5,25173,6.94,71730.3,-10.45,-44.99,-45.41,0,*66
1520143300.72,25174,6.94,71728.8,-10.45,-45.21,-45.61,0,*61
1520143301.98,25175,6.94,71728.5,-10.47,-44.99,-45.47,0,*64
1520143303.23,25176,6.94,71730.3,-10.45,-45.21,-45.73,0,*60
1520143304.47,25177,6.94,71730.8,-10.47,-44.99,-45.61,0,*62
1520143305.71,25178,6.94,71730.0,-10.43,-45.33,-45.81,0,*66
1520143306.93,25179,6.94,71730.0,-10.45,-45.53,-45.95,0,*62
1520143308.17,25180,7.0,71730.8,-10.45,-44.93,-45.41,0,*60
1520143309.41,25181,7.0,71734.5,-10.45,-44.67,-45.13,0,*6D
1520143310.67,25182,6.94,71726.5,-10.47,-44.73,-45.21,0,*68
1520143311.91,25183,7.0,71730.5,-10.47,-44.99,-45.41,0,*6B
1520143313.14,25184,6.94,71728.3,-10.43,-45.21,-45.61,0,*68
1520143314.36,25185,7.0,71730.3,-10.45,-45.21,-45.61,0,*6F
1520143315.61,25186,6.94,71732.0,-10.43,-44.73,-45.21,0,*68
1520143316.85,25187,6.94,71730.0,-10.43,-44.73,-45.13,0,*68
1520143318.07,25188,6.94,71730.3,-10.43,-45.13,-45.33,0,*62
1520143319.3,25189,6.94,71732.5,-10.43,-45.13,-45.61,0,*64
1520143320.55,25190,6.94,71732.0,-10.41,-45.21,-45.61,0,*6F
1520143321.77,25191,6.94,71730.8,-10.45,-44.99,-45.61,0,*68
1520143322.99,25192,6.94,71730.3,-10.43,-45.13,-45.53,0,*6F
1520143324.22,25193,6.94,71732.0,-10.43,-44.99,-45.41,0,*6E
1520143325.46,25194,6.94,71732.0,-10.43,-44.73,-45.33,0,*68
1520143326.73,25195,6.94,71730.3,-10.41,-44.67,-45.13,0,*6C
1520143328.01,25196,6.94,71732.5,-10.41,-44.73,-45.21,0,*6B
1520143329.29,25197,6.94,71730.0,-10.41,-44.73,-45.21,0,*6A
1520143330.55,25198,6.94,71730.0,-10.41,-44.67,-45.13,0,*61
1520143331.83,25199,6.94,71728.5,-10.37,-44.87,-45.27,0,*68
1520143333.11,25200,7.0,71734.0,-10.37,-44.87,-45.27,0,*6B
1520143334.38,25201,6.94,71730.5,-10.37,-44.93,-45.33,0,*6A
1520143335.66,25202,6.94,71728.5,-10.41,-44.93,-45.33,0,*68
1520143336.91,25203,6.94,71730.8,-10.37,-45.13,-45.53,0,*67
1520143338.19,25204,6.94,71726.5,-10.37,-44.87,-45.27,0,*6F
1520143339.48,25205,6.94,71730.5,-10.37,-45.07,-45.47,0,*61
1520143340.75,25206,6.94,71728.5,-10.37,-45.07,-45.53,0,*67
1520143342.06,25207,6.94,71728.8,-10.37,-45.27,-45.73,0,*66
1520143343.3,25208,6.94,71730.5,-10.37,-45.13,-45.67,0,*6B
1520143344.56,25209,6.94,71730.0,-10.37,-45.13,-45.47,0,*68
1520143345.82,25210,7.0,71734.3,-10.37,-44.87,-45.33,0,*6F
1520143347.09,25211,7.0,71734.5,-10.37,-44.79,-45.27,0,*6A
1520143348.32,25212,7.0,71732.5,-10.35,-44.79,-45.21,0,*6D
1520143349.54,25213,6.94,71728.5,-10.35,-44.99,-45.41,0,*64
1520143350.79,25214,7.0,71732.0,-10.37,-45.13,-45.53,0,*61
1520143352.03,25215,6.94,71732.5,-10.37,-45.13,-45.67,0,*67
1520143353.32,25216,7.0,71732.5,-10.37,-44.93,-45.47,0,*6F
1520143354.6,25217,7.0,71732.0,-10.37,-44.87,-45.27,0,*6D
1520143355.87,25218,7.0,71732.3,-10.37,-44.93,-45.33,0,*62
1520143357.17,25219,7.0,71736.8,-10.37,-44.93,-45.47,0,*60
1520143358.39,25220,6.94,71730.8,-10.35,-44.99,-45.67,0,*60
1520143359.63,25221,7.0,71732.3,-10.37,-45.13,-45.67,0,*60
1520143360.87,25222,6.94,71730.0,-10.35,-45.07,-45.41,0,*60
1520143362.09,25223,6.94,71730.8,-10.35,-45.21,-45.41,0,*65
1520143363.34,25224,6.94,71728.8,-10.35,-44.87,-45.27,0,*6F
1520143364.59,25225,6.94,71728.5,-10.35,-44.79,-45.27,0,*6F
1520143365.85,25226,7.0,71730.5,-10.37,-44.87,-45.33,0,*6A
1520143367.12,25227,6.94,71734.8,-10.35,-44.93,-45.27,0,*69
1520143368.36,25228,7.0,71734.3,-10.35,-44.99,-45.27,0,*6C
1520143369.61,25229,7.0,71734.5,-10.35,-44.79,-45.27,0,*63
1520143370.83,25230,6.94,71732.3,-10.35,-44.61,-45.21,0,*64
1520143372.1,25231,7.0,71734.8,-10.35,-44.73,-45.27,0,*60
1520143373.36,25232,6.94,71734.5,-10.35,-44.87,-45.27,0,*68
1520143374.61,25233,7.0,71734.5,-10.35,-44.79,-45.27,0,*68
1520143375.85,25234,6.94,71732.8,-10.33,-44.53,-44.99,0,*65
1520143377.06,25235,6.94,71734.8,-10.31,-44.41,-44.87,0,*6A
1520143378.33,25236,6.94,71732.8,-10.33,-44.87,-45.27,0,*6A
1520143379.58,25237,7.0,71736.0,-10.31,-44.73,-45.21,0,*64
1520143380.82,25238,7.0,71732.3,-10.33,-44.61,-45.21,0,*6A
1520143382.05,25239,7.0,71732.8,-10.31,-44.79,-45.41,0,*66
1520143383.29,25240,7.0,71736.8,-10.31,-44.93,-45.33,0,*69
1520143384.5,25241,7.0,71734.0,-10.31,-44.79,-45.13,0,*6E
1520143385.75,25242,6.94,71732.0,-10.31,-44.93,-45.21,0,*68
1520143386.99,25243,7.0,71736.5,-10.31,-44.53,-44.93,0,*6D
1520143388.23,25244,7.0,71732.3,-10.31,-44.73,-45.13,0,*61
1520143389.46,25245,7.0,71732.8,-10.31,-44.79,-45.21,0,*6B
1520143390.7,25246,7.0,71732.8,-10.31,-44.93,-45.33,0,*6F
1520143391.91,25247,7.0,71736.5,-10.31,-44.61,-45.21,0,*60
1520143393.13,25248,7.0,71734.5,-10.31,-44.53,-44.99,0,*6C
1520143394.34,25249,7.0,71736.3,-10.31,-44.99,-45.41,0,*6F
1520143395.56,25250,7.0,71734.8,-10.31,-45.13,-45.61,0,*66
1520143396.8,25251,7.0,71732.5,-10.31,-44.93,-45.41,0,*6C
1520143398.03,25252,6.94,71730.8,-10.31,-44.67,-45.13,0,*63
1520143399.27,25253,6.94,71730.0,-10.31,-44.47,-44.99,0,*63
1520143400.48,25254,7.0,71728.0,-10.31,-44.53,-44.99,0,*61
1520143401.75,25255,7.0,71734.0,-10.29,-44.93,-45.41,0,*61
1520143403.02,25256,7.0,71732.0,-10.29,-45.21,-45.73,0,*6B
1520143404.26,25257,7.0,71734.5,-10.29,-45.33,-45.61,0,*6A
1520143405.52,25258,6.94,71734.0,-10.29,-45.41,-45.73,0,*63
1520143406.8,25259,7.0,71732.8,-10.29,-45.53,-46.07,0,*61
1520143408.05,25260,6.94,71734.8,-10.29,-44.79,-45.33,0,*66
1520143409.32,25261,7.0,71734.3,-10.29,-44.73,-45.13,0,*6F
1520143410.56,25262,7.0,71734.8,-10.29,-44.53,-45.13,0,*6E
1520143411.81,25263,7.0,71734.5,-10.29,-44.79,-45.41,0,*60
1520143413.05,25264,7.0,71732.5,-10.29,-45.13,-45.61,0,*68
1520143414.3,25265,6.94,71730.3,-10.29,-45.13,-45.41,0,*6B
1520143415.54,25266,7.0,71734.5,-10.27,-44.93,-45.33,0,*6A
1520143416.79,25267,7.0,71732.8,-10.29,-44.79,-45.21,0,*62
1520143418.07,25268,7.0,71732.0,-10.29,-44.93,-45.41,0,*6F
1520143419.31,25269,6.94,71732.3,-10.29,-44.99,-45.41,0,*64
1520143420.53,25270,7.0,71738.8,-10.27,-45.13,-45.53,0,*62
1520143421.8,25271,7.0,71732.5,-10.29,-44.93,-45.33,0,*62
1520143423.06,25272,7.0,71734.5,-10.27,-44.67,-45.07,0,*63
1520143424.31,25273,7.0,71736.8,-10.27,-44.87,-45.47,0,*68
1520143425.57,25274,7.0,71734.5,-10.27,-44.73,-45.27,0,*62
1520143426.81,25275,7.0,71736.3,-10.27,-44.41,-44.93,0,*6C
1520143428.06,25276,7.0,71738.0,-10.27,-44.87,-45.27,0,*6B
1520143429.3,25277,7.0,71734.8,-10.27,-45.07,-45.33,0,*66
1520143430.55,25278,7.0,71734.5,-10.27,-44.87,-45.27,0,*65
1520143431.82,25279,7.0,71738.0,-10.29,-44.93,-45.33,0,*6A
1520143433.07,25280,7.0,71736.0,-10.27,-45.07,-45.53,0,*68
1520143434.31,25281,7.0,71736.0,-10.27,-44.93,-45.53,0,*65
1520143435.59,25282,7.0,71738.3,-10.29,-44.93,-45.53,0,*68
1520143436.83,25283,7.0,71738.5,-10.27,-45.27,-45.67,0,*6E
1520143438.1,25284,7.0,71736.0,-10.27,-44.67,-45.27,0,*68
1520143439.39,25285,7.0,71736.5,-10.29,-44.47,-44.93,0,*6B
1520143440.66,25286,7.0,71732.8,-10.27,-44.67,-45.27,0,*6A
1520143441.89,25287,7.0,71732.0,-10.27,-44.67,-45.13,0,*6C
1520143443.13,25288,7.0,71736.0,-10.23,-44.33,-44.87,0,*6A
1520143444.4,25289,7.0,71732.5,-10.25,-44.27,-44.93,0,*6D
1520143445.66,25290,7.0,71734.8,-10.23,-44.13,-44.33,0,*6E
1520143446.92,25291,7.0,71738.3,-10.23,-44.13,-44.67,0,*6E
1520143448.13,25292,7.0,71740.3,-10.23,-44.53,-44.87,0,*67
1520143449.38,25293,7.0,71734.8,-10.23,-44.79,-45.27,0,*65
1520143450.63,25294,7.0,71734.8,-10.21,-44.79,-45.41,0,*60
1520143451.89,25295,7.0,71734.5,-10.23,-44.67,-45.07,0,*6E
1520143453.13,25296,7.0,71736.3,-10.23,-44.79,-45.27,0,*60
1520143454.4,25297,7.0,71734.0,-10.25,-44.73,-45.21,0,*6B
1520143455.67,25298,7.0,71736.5,-10.21,-44.67,-45.21,0,*65
1520143456.92,25299,7.0,71734.5,-10.21,-44.79,-45.21,0,*6B
1520143458.19,25300,7.0,71736.0,-10.21,-44.67,-45.21,0,*65
1520143459.44,25301,7.0,71738.0,-10.21,-44.87,-45.41,0,*6C
1520143460.7,25302,7.0,71736.8,-10.25,-45.07,-45.67,0,*66
1520143461.92,25303,7.0,71736.3,-10.23,-44.99,-45.41,0,*63
1520143463.19,25304,7.0,71738.0,-10.21,-44.67,-45.21,0,*61
1520143464.43,25305,7.0,71736.5,-10.21,-44.99,-45.61,0,*65
1520143465.67,25306,7.0,71738.5,-10.21,-45.21,-45.67,0,*62
1520143466.91,25307,7.0,71738.3,-10.23,-45.41,-45.81,0,*6F
1520143468.12,25308,7.0,71736.0,-10.23,-44.61,-44.99,0,*6B
1520143469.36,25309,7.0,71738.3,-10.23,-44.67,-44.99,0,*6C
1520143470.57,25310,7.0,71738.5,-10.23,-44.41,-44.99,0,*60
1520143471.8,25311,7.0,71738.5,-10.23,-44.33,-44.87,0,*6B
1520143473.04,25312,7.0,71740.8,-10.21,-44.41,-44.87,0,*6F
1520143474.31,25313,7.0,71736.5,-10.19,-44.33,-44.73,0,*6B
1520143475.55,25314,7.0,71740.8,-10.21,-44.41,-44.87,0,*69
1520143476.79,25315,7.0,71738.8,-10.19,-44.53,-44.93,0,*65
1520143478.06,25316,7.0,71734.5,-10.19,-44.47,-44.93,0,*63
1520143479.27,25317,7.0,71736.8,-10.19,-44.53,-44.99,0,*6D
1520143480.54,25318,7.0,71738.5,-10.19,-44.33,-44.93,0,*6E
1520143481.75,25319,7.0,71738.5,-10.19,-44.53,-44.99,0,*63
1520143482.99,25320,7.0,71736.8,-10.15,-44.47,-44.99,0,*60
1520143484.2,25321,7.0,71738.0,-10.19,-44.61,-45.13,0,*6A
1520143485.42,25322,7.0,71736.0,-10.15,-44.79,-45.21,0,*6D
1520143486.67,25323,7.0,71738.0,-10.19,-44.93,-45.53,0,*61
1520143487.89,25324,7.0,71736.8,-10.15,-44.79,-45.21,0,*6B
1520143489.1,25325,7.0,71736.5,-10.15,-44.61,-44.99,0,*61
1520143490.32,25326,7.0,71736.3,-10.15,-44.79,-45.21,0,*69
1520143491.55,25327,7.0,71734.8,-10.15,-44.73,-45.13,0,*63
1520143492.79,25328,7.0,71734.5,-10.15,-44.53,-44.93,0,*67
1520143494.03,25329,7.0,71734.3,-10.13,-44.41,-44.87,0,*66
1520143495.29,25330,7.0,71738.3,-10.15,-44.47,-44.93,0,*6B
1520143496.56,25331,7.0,71732.5,-10.13,-44.41,-44.93,0,*6A
1520143497.77,25332,7.0,71732.8,-10.15,-44.53,-44.99,0,*66
1520143499.0,25333,7.0,71732.0,-10.15,-44.47,-44.99,0,*62
1520143500.27,25334,7.0,71736.3,-10.13,-44.93,-45.53,0,*6D
1520143501.5,25335,7.0,71734.0,-10.09,-44.87,-45.21,0,*67
1520143502.74,25336,7.0,71734.8,-10.13,-45.33,-45.95,0,*6E
1520143504.0,25337,7.0,71736.8,-10.13,-45.33,-45.81,0,*6A
1520143505.24,25338,7.0,71736.0,-10.13,-45.13,-45.53,0,*68
1520143506.45,25339,7.0,71738.8,-10.15,-44.99,-45.41,0,*6F
1520143507.75,25340,7.0,71736.8,-10.13,-45.27,-45.73,0,*62
1520143508.97,25341,7.0,71732.5,-10.15,-44.79,-45.33,0,*6B
1520143510.26,25342,7.0,71736.0,-10.13,-45.07,-45.47,0,*65
1520143511.5,25343,7.0,71736.3,-10.15,-44.93,-45.53,0,*6B
1520143512.72,25344,7.0,71738.5,-10.15,-44.79,-45.33,0,*6E
1520143513.98,25345,7.0,71736.8,-10.13,-44.67,-45.13,0,*64
1520143515.25,25346,7.0,71732.8,-10.13,-44.73,-45.33,0,*60
1520143516.48,25347,7.0,71736.0,-10.15,-45.13,-45.81,0,*69
1520143517.73,25348,7.0,71736.0,-10.13,-45.13,-45.53,0,*6F
1520143518.94,25349,7.0,71736.8,-10.15,-45.21,-45.61,0,*68
1520143520.21,25350,7.0,71736.3,-10.13,-45.07,-45.53,0,*63
1520143521.42,25351,7.0,71736.0,-10.15,-44.99,-45.41,0,*61
1520143522.66,25352,7.0,71740.5,-10.15,-44.73,-45.13,0,*61
1520143523.9,25353,7.0,71738.5,-10.13,-44.53,-45.13,0,*64
1520143525.16,25354,7.0,71736.5,-10.13,-44.67,-45.13,0,*64
1520143526.42,25355,7.0,71736.8,-10.13,-44.73,-45.13,0,*60
1520143527.66,25356,7.0,71736.0,-10.13,-44.53,-45.13,0,*61
1520143528.89,25357,7.0,71738.3,-10.13,-44.53,-45.13,0,*60
1520143530.13,25358,7.0,71738.8,-10.13,-45.13,-45.53,0,*6E
1520143531.4,25359,7.0,71736.8,-10.13,-45.27,-45.67,0,*6F
1520143532.7,25360,7.0,71742.5,-10.13,-44.93,-45.47,0,*69
1520143533.94,25361,7.0,71740.5,-10.15,-44.93,-45.41,0,*68
1520143535.23,25362,7.0,71738.8,-10.13,-44.67,-45.27,0,*66
1520143536.46,25363,7.0,71738.5,-10.13,-44.53,-45.13,0,*67
1520143537.71,25364,7.0,71736.5,-10.09,-44.99,-45.47,0,*6C
1520143538.93,25365,7.0,71740.5,-10.09,-44.99,-45.41,0,*6B
1520143540.19,25366,7.0,71740.3,-10.09,-44.87,-45.27,0,*67
1520143541.45,25367,7.0,71740.8,-10.13,-44.67,-45.13,0,*64
1520143542.73,25368,7.0,71740.8,-10.13,-44.67,-45.27,0,*6C
1520143544.0,25369,7.0,71738.0,-10.13,-44.73,-45.13,0,*6F
1520143545.24,25370,7.0,71736.8,-10.09,-44.47,-44.99,0,*68
1520143546.49,25371,7.0,71740.8,-10.09,-44.99,-45.47,0,*68
1520143547.74,25372,7.0,71740.0,-10.09,-44.87,-45.47,0,*64
1520143548.96,25373,7.0,71738.8,-10.09,-44.99,-45.41,0,*6C
1520143550.18,25374,7.0,71738.3,-10.09,-44.61,-44.99,0,*68
1520143551.43,25375,7.0,71738.8,-10.09,-44.87,-45.47,0,*63
1520143552.7,25376,7.0,71740.3,-10.09,-44.67,-45.07,0,*6A
1520143553.92,25377,7.0,71738.0,-10.09,-45.21,-45.67,0,*6E
1520143555.21,25378,7.0,71740.8,-10.13,-44.73,-45.27,0,*68
1520143556.51,25379,7.0,71740.5,-10.13,-44.73,-45.27,0,*69
1520143557.76,25380,7.0,71740.8,-10.07,-44.87,-45.41,0,*61
1520143559.03,25381,7.0,71744.3,-10.09,-44.67,-45.27,0,*60
1520143560.27,25382,7.0,71740.8,-10.09,-44.61,-45.07,0,*67
1520143561.51,25383,7.0,71736.0,-10.07,-44.61,-45.21,0,*6C
1520143562.73,25384,7.0,71738.8,-10.09,-44.61,-44.99,0,*67
1520143563.97,25385,7.0,71742.5,-10.07,-44.41,-44.87,0,*65
1520143565.21,25386,7.0,71740.0,-10.05,-44.67,-45.21,0,*6D
1520143566.43,25387,7.0,71740.5,-10.09,-44.41,-44.79,0,*68
1520143567.64,25388,7.0,71736.8,-10.09,-44.61,-44.99,0,*6B
1520143568.87,25389,7.0,71736.0,-10.09,-44.87,-45.41,0,*66
1520143570.1,25390,7.0,71740.3,-10.05,-44.87,-45.41,0,*62
1520143571.37,25391,7.0,71740.8,-10.07,-45.07,-45.61,0,*6A
1520143572.64,25392,7.0,71740.5,-10.09,-45.07,-45.47,0,*63
1520143573.88,25393,7.0,71740.5,-10.05,-44.79,-45.27,0,*60
1520143575.09,25394,7.0,71744.8,-10.05,-44.41,-44.99,0,*68
1520143576.38,25395,7.0,71746.0,-10.07,-44.67,-45.27,0,*6B
1520143577.65,25396,7.0,71744.8,-10.07,-44.61,-45.07,0,*6C
1520143578.9,25397,7.0,71746.5,-10.05,-44.33,-44.67,0,*6F
1520143580.16,25398,7.0,71748.0,-10.05,-44.21,-44.67,0,*63
1520143581.4,25399,7.0,71744.8,-10.05,-44.33,-44.79,0,*6E
1520143582.63,25400,7.0,71746.0,-10.03,-43.95,-44.53,0,*6C
1520143583.87,25401,7.0,71740.8,-10.03,-44.07,-44.61,0,*60
1520143585.11,25402,7.0,71744.3,-10.05,-44.47,-44.87,0,*69
1520143586.35,25403,7.0,71742.8,-10.03,-44.27,-44.79,0,*69
1520143587.64,25404,7.0,71744.0,-10.03,-44.33,-44.93,0,*6F
1520143588.9,25405,7.0,71742.3,-10.03,-44.33,-44.79,0,*6A
1520143590.14,25406,7.0,71744.5,-10.03,-44.61,-45.13,0,*63
1520143591.39,25407,7.0,71746.8,-10.03,-44.79,-45.21,0,*6A
1520143592.64,25408,7.0,71742.3,-10.03,-44.79,-45.33,0,*66
1520143593.87,25409,7.0,71742.8,-10.03,-44.41,-44.99,0,*6D
1520143595.11,25410,7.0,71742.8,-10.03,-44.61,-45.13,0,*64
1520143596.35,25411,7.0,71740.5,-10.03,-44.61,-45.13,0,*65
1520143597.59,25412,7.0,71744.5,-10.03,-44.61,-45.21,0,*67
1520143598.83,25413,7.0,71742.8,-10.03,-44.53,-44.99,0,*65
1520143600.1,25414,7.0,71740.8,-10.01,-44.47,-44.93,0,*6F
1520143601.37,25415,7.0,71742.8,-10.01,-44.47,-44.93,0,*6E
1520143602.64,25416,7.0,71740.3,-10.01,-44.47,-44.93,0,*6D
1520143603.86,25417,7.0,71742.5,-10.01,-44.87,-45.33,0,*6B
1520143605.13,25418,7.0,71740.3,-10.01,-44.73,-45.47,0,*6C
1520143606.39,25419,7.0,71742.8,-9.99,-44.73,-45.13,0,*55
1520143607.66,25420,7.0,71742.5,-10.01,-44.47,-44.93,0,*68
1520143608.9,25421,7.0,71740.0,-9.99,-44.87,-45.13,0,*55
1520143610.14,25422,7.0,71746.0,-9.99,-44.27,-44.87,0,*50
1520143611.42,25423,7.0,71746.0,-9.99,-44.67,-45.07,0,*5C
1520143612.66,25424,7.0,71742.0,-10.01,-44.93,-45.33,0,*6E
1520143613.91,25425,7.0,71740.0,-10.01,-44.73,-45.33,0,*61
1520143615.2,25426,7.0,71738.5,-9.99,-44.73,-45.27,0,*5E
1520143616.45,25427,7.0,71738.0,-9.99,-44.67,-45.13,0,*5D
1520143617.72,25428,7.0,71740.5,-10.01,-44.67,-45.27,0,*6C
1520143618.96,25429,7.0,71742.0,-9.99,-44.87,-45.33,0,*5F
1520143620.24,25430,7.0,71742.5,-9.99,-45.07,-45.47,0,*5D
1520143621.5,25431,7.0,71740.0,-9.95,-44.47,-44.99,0,*57
1520143622.78,25432,7.0,71744.8,-9.99,-44.67,-45.27,0,*5E
1520143624.04,25433,7.0,71740.8,-9.99,-44.73,-45.13,0,*5D
1520143625.33,25434,7.0,71742.5,-9.99,-44.73,-45.47,0,*5B
1520143626.58,25435,7.0,71742.0,-9.99,-44.53,-45.07,0,*5C
1520143627.83,25436,7.0,71740.8,-9.99,-44.27,-44.87,0,*55
1520143629.08,25437,7.0,71740.5,-9.97,-44.47,-45.07,0,*55
1520143630.3,25438,7.0,71740.3,-9.97,-44.27,-44.87,0,*55
1520143631.51,25439,7.0,71742.5,-9.97,-44.27,-44.79,0,*55
1520143632.72,25440,7.0,71742.5,-9.97,-44.41,-44.99,0,*55
1520143634.0,25441,7.0,71740.5,-9.95,-44.67,-45.27,0,*56
1520143635.25,25442,7.0,71740.0,-9.97,-44.13,-44.67,0,*51
1520143636.49,25443,7.0,71740.8,-9.95,-44.27,-44.87,0,*5B
1520143637.73,25444,7.0,71742.3,-9.95,-44.79,-45.41,0,*5C
1520143638.96,25445,7.0,71742.8,-9.95,-44.41,-44.79,0,*5C
1520143640.19,25446,7.0,71742.3,-9.95,-44.27,-44.79,0,*5F
1520143641.43,25447,7.0,71740.0,-9.95,-44.27,-44.87,0,*5F
1520143642.69,25448,7.0,71742.3,-9.95,-44.47,-44.87,0,*56
1520143643.97,25449,7.0,71740.8,-9.95,-44.67,-45.27,0,*5E
1520143645.23,25450,7.0,71740.5,-9.91,-44.53,-44.93,0,*5B
1520143646.47,25451,7.0,71746.5,-9.95,-44.61,-45.21,0,*57
1520143647.72,25452,7.0,71744.5,-9.95,-44.61,-45.07,0,*50
1520143648.95,25453,7.0,71740.8,-9.91,-44.61,-45.13,0,*50
1520143650.22,25454,7.0,71740.8,-9.91,-44.73,-45.33,0,*56
1520143651.46,25455,7.0,71742.0,-9.91,-44.79,-45.21,0,*5E
1520143652.74,25456,7.0,71740.0,-9.91,-44.33,-44.73,0,*55
1520143653.99,25457,7.0,71738.0,-9.91,-44.13,-44.61,0,*55
1520143655.22,25458,7.0,71742.0,-9.91,-44.53,-45.13,0,*5A
1520143656.45,25459,7.0,71740.5,-9.91,-44.61,-45.13,0,*5A
1520143657.68,25460,7.0,71742.3,-9.89,-44.33,-44.99,0,*5D
1520143658.9,25461,7.0,71742.0,-9.89,-44.79,-45.41,0,*56
1520143660.13,25462,7.0,71740.5,-9.91,-44.53,-45.13,0,*53
1520143661.38,25463,7.0,71746.0,-9.91,-44.33,-44.99,0,*57
1520143662.62,25464,7.0,71740.8,-9.91,-44.99,-45.61,0,*56
1520143663.91,25465,7.0,71744.3,-9.91,-44.33,-44.93,0,*5B
1520143665.11,25466,7.0,71742.5,-9.89,-44.41,-44.99,0,*5E
1520143666.39,25467,7.0,71744.8,-9.91,-44.13,-44.73,0,*55
1520143667.62,25468,7.0,71742.5,-9.89,-44.41,-44.93,0,*5A
1520143668.9,25469,7.0,71746.0,-9.87,-44.13,-44.73,0,*5C
1520143670.14,25470,7.0,71746.0,-9.89,-44.41,-44.93,0,*53
1520143671.39,25471,7.0,71746.0,-9.87,-44.67,-45.13,0,*51
1520143672.62,25472,7.0,71740.0,-9.87,-44.27,-44.87,0,*5A
1520143673.85,25473,7.0,71748.0,-9.89,-44.33,-44.79,0,*51
1520143675.12,25474,7.0,71744.0,-9.87,-44.13,-44.67,0,*55
1520143676.39,25475,7.0,71748.8,-9.87,-44.13,-44.67,0,*54
1520143677.63,25476,7.06,71750.0,-9.87,-44.27,-44.87,0,*5E
1520143678.91,25477,7.0,71746.5,-9.87,-44.13,-44.73,0,*53
1520143680.12,25478,7.0,71742.5,-9.85,-44.53,-45.13,0,*5D
1520143681.37,25479,7.0,71742.8,-9.87,-44.47,-45.13,0,*5B
1520143682.62,25480,7.0,71744.3,-9.87,-44.53,-45.27,0,*5F
1520143683.83,25481,7.0,71742.3,-9.89,-44.61,-45.13,0,*56
1520143685.08,25482,7.0,71740.5,-9.85,-44.13,-44.73,0,*5B
1520143686.3,25483,7.0,71736.8,-9.85,-44.27,-44.87,0,*56
1520143687.55,25484,7.0,71736.8,-9.87,-44.33,-44.87,0,*56
1520143688.84,25485,7.0,71742.8,-9.87,-44.47,-44.93,0,*51
1520143690.07,25486,7.0,71740.0,-9.85,-44.53,-45.07,0,*59
1520143691.28,25487,7.0,71738.3,-9.85,-44.27,-44.87,0,*52
1520143692.54,25488,7.0,71736.3,-9.85,-44.47,-44.93,0,*5E
1520143693.79,25489,7.0,71736.3,-9.85,-44.33,-45.07,0,*50
1520143695.05,25490,7.0,71738.0,-9.85,-44.33,-44.93,0,*54
1520143696.27,25491,7.0,71740.0,-9.85,-44.27,-44.87,0,*55
1520143697.47,25492,7.06,71740.5,-9.85,-44.53,-45.13,0,*59
1520143698.71,25493,7.0,71736.8,-9.87,-44.27,-44.87,0,*55
1520143699.96,25494,7.0,71738.3,-9.83,-44.47,-44.87,0,*50
1520143701.2,25495,7.0,71738.8,-9.83,-44.27,-44.87,0,*57
1520143702.45,25496,7.0,71740.3,-9.83,-44.47,-44.99,0,*5D
1520143703.7,25497,7.0,71740.8,-9.81,-44.21,-44.67,0,*5F
1520143704.93,25498,7.0,71742.5,-9.81,-44.27,-44.67,0,*56
1520143706.2,25499,7.0,71742.8,-9.83,-44.47,-45.07,0,*54